Location: Makanda
(37.6176°N, 89.2090°W)
Time: 09:33:03
(UTC+00:00)

Cosmos 1437 Rocket - Pass Details

Date: 23 September 2019
Orbit: 506 x 563 km, 81.2° (Epoch: 14 October)

Event Time Altitude Azimuth Distance (km) Brightness Sun altitude
Rises 01:05:32 0° 6° (N) 2,621 6.4 -14.9°
Reaches altitude 10° 01:08:04 10° 23° (NNE) 1,727 5.2 -15.4°
Enters shadow 01:10:07 20° 54° (NE) 1,231 4.2 -15.8°
